DW5729 Sheepshead Bay NY US current weather conditions

sailwx.info

Wind from 146 at 3 knots gusting 6

Air temperature 25.6° C
Dewpoint 18.7° C

Last reported at 2019-Sep-16 16:01 UTC.
Time now 2019-Sep-16 16:44 UTC

Location: N 40°36' W 073°57'.
View on Google Maps.

See reports from other nearby stations

  
Tides and Currents Weather Stations Pressure Air Temp Water Temp Dewpoint Dewpoint Depression Visibility Wind Speed Wind Dir Waves Ship Positions
date/time (UTC)wind fromknots sea level pressurealtimeterstation pressurevisibilityair tempwater tempwave heightnotes
2019-Sep-16 16:01 146 3 gusting 6 25.6
2019-Sep-16 15:47 179 0 gusting 6 25.0
2019-Sep-16 15:31 055 25.0
2019-Sep-16 15:16 087 25.0
2019-Sep-16 15:01 309 25.0
2019-Sep-16 14:46 091 24.4
2019-Sep-16 14:31 328 23.9
2019-Sep-16 14:16 294 23.3
2019-Sep-16 14:01 293 23.3
2019-Sep-16 13:46 335 22.8
2019-Sep-16 13:30 334 22.8
2019-Sep-16 13:15 338 22.8
2019-Sep-16 13:01 339 22.2
2019-Sep-16 12:46 306 22.2
2019-Sep-16 12:30 278 22.2
2019-Sep-16 12:15 276 22.2
2019-Sep-16 12:00 007 21.7
2019-Sep-16 11:45 280 21.7
2019-Sep-16 11:30 263 1 gusting 4 21.7
2019-Sep-16 11:15 274 21.7
2019-Sep-16 11:00 273 0 gusting 2 21.7
2019-Sep-16 10:45 323 21.7
2019-Sep-16 10:30 314 21.7
2019-Sep-16 10:15 334 0 gusting 5 21.7
2019-Sep-16 10:00 331 1 gusting 4 22.2
2019-Sep-16 09:45 282 21.7
2019-Sep-16 09:30 266 21.7
2019-Sep-16 09:15 266 21.7
2019-Sep-16 09:00 266 21.7
2019-Sep-16 08:45 252 21.7
2019-Sep-16 08:30 278 22.2
2019-Sep-16 08:15 256 0 gusting 3 22.2
2019-Sep-16 08:03 272 22.2
2019-Sep-16 07:47 272 22.2
2019-Sep-16 07:32 272 21.7
2019-Sep-16 07:17 266 21.7
2019-Sep-16 07:01 269 21.7
2019-Sep-16 06:46 269 21.7
2019-Sep-16 06:31 269 21.7
2019-Sep-16 06:16 269 21.7
2019-Sep-16 06:02 269 21.7
2019-Sep-16 05:46 269 21.7
2019-Sep-16 05:31 261 21.7
2019-Sep-16 05:17 246 21.7
2019-Sep-16 05:01 246 0 gusting 3 21.7
2019-Sep-16 04:46 254 1 gusting 4 22.2
2019-Sep-16 04:31 262 2 gusting 7 22.2
2019-Sep-16 04:16 230 1 gusting 4 22.2
2019-Sep-16 04:00 252 22.2
2019-Sep-16 03:46 236 22.2
2019-Sep-16 03:31 251 22.2
2019-Sep-16 03:15 250 22.8
2019-Sep-16 03:01 250 22.8
2019-Sep-16 02:45 250 22.8
2019-Sep-16 02:31 250 22.8
2019-Sep-16 02:15 250 22.8
2019-Sep-16 02:01 243 23.3
2019-Sep-16 01:45 205 0 gusting 3 23.3
2019-Sep-16 01:31 251 23.9
2019-Sep-16 01:15 251 24.4
2019-Sep-16 01:00 282 23.9
2019-Sep-16 00:45 213 23.9
2019-Sep-16 00:30 240 23.3
2019-Sep-16 00:16 178 23.3
2019-Sep-16 00:00 178 23.3
2019-Sep-15 23:46 229 22.8
2019-Sep-15 23:31 180 23.3
2019-Sep-15 23:15 162 0 gusting 4 23.3
2019-Sep-15 23:00 207 23.3
2019-Sep-15 22:45 173 1 gusting 6 23.3
2019-Sep-15 22:30 205 2 gusting 7 23.9
2019-Sep-15 22:16 202 3 gusting 6 24.4
2019-Sep-15 22:00 188 2 gusting 8 24.4
2019-Sep-15 21:45 178 3 gusting 6 25.0
2019-Sep-15 21:30 236 2 gusting 8 25.0
2019-Sep-15 21:15 195 3 gusting 8 25.0
2019-Sep-15 21:00 172 4 gusting 9 25.0
2019-Sep-15 20:45 226 5 gusting 9 25.6
2019-Sep-15 20:30 221 4 gusting 7 26.7
2019-Sep-15 20:15 197 1 gusting 6 27.2
2019-Sep-15 20:00 158 2 gusting 7 27.2
2019-Sep-15 19:45 214 2 gusting 8 27.8
2019-Sep-15 19:30 311 1 gusting 7 27.2
2019-Sep-15 19:15 312 2 gusting 7 27.2
2019-Sep-15 19:00 272 2 gusting 6 27.2
2019-Sep-15 18:45 264 0 gusting 6 27.2
2019-Sep-15 18:32 332 1 gusting 8 26.7
2019-Sep-15 18:17 203 2 gusting 6 27.2
2019-Sep-15 18:02 221 1 gusting 9 27.2
2019-Sep-15 17:46 174 2 gusting 8 27.2
2019-Sep-15 17:31 321 0 gusting 8 26.7
2019-Sep-15 17:17 332 0 gusting 5 26.7
2019-Sep-15 17:01 312 26.1
2019-Sep-15 16:46 335 26.1
2019-Sep-15 16:32 330 26.1
2019-Sep-15 16:16 302 3 gusting 7 26.1
2019-Sep-15 16:00 275 25.6
2019-Sep-15 15:45 296 2 gusting 8 25.6
2019-Sep-15 15:30 263 2 gusting 6 25.0
2019-Sep-15 15:15 329 25.6
2019-Sep-15 15:01 338 25.0
2019-Sep-15 14:45 338 24.4
2019-Sep-15 14:30 259 23.9
2019-Sep-15 14:15 328 4 gusting 6 23.9
2019-Sep-15 14:00 279 2 gusting 5 24.4
2019-Sep-15 13:45 321 23.9
2019-Sep-15 13:30 347 2 gusting 6 23.3
2019-Sep-15 13:15 030 23.3
2019-Sep-15 13:00 340 0 gusting 5 22.8
2019-Sep-15 12:47 326 22.8
2019-Sep-15 12:31 340 0 gusting 3 22.2
2019-Sep-15 12:17 315 22.2
2019-Sep-15 12:02 330 1 gusting 3 21.7
2019-Sep-15 11:47 331 21.7
2019-Sep-15 11:31 323 21.1
2019-Sep-15 11:17 311 21.1
2019-Sep-15 11:02 311 21.1
2019-Sep-15 10:46 311 21.1
2019-Sep-15 10:31 311 21.7
2019-Sep-15 10:16 001 21.7
2019-Sep-15 10:02 308 21.7
2019-Sep-15 09:46 325 21.7
2019-Sep-15 09:32 325 21.7
2019-Sep-15 09:17 311 21.7
2019-Sep-15 09:01 335 21.7
2019-Sep-15 08:46 266 21.7
2019-Sep-15 08:32 257 21.7
2019-Sep-15 08:16 240 1 gusting 5 21.7
2019-Sep-15 08:01 288 2 gusting 4 21.7
2019-Sep-15 07:47 238 1 gusting 4 21.7
2019-Sep-15 07:31 252 0 gusting 2 21.7
2019-Sep-15 07:16 281 22.2
2019-Sep-15 07:01 245 22.2
2019-Sep-15 06:45 276 22.2
2019-Sep-15 06:30 248 22.2
2019-Sep-15 06:16 246 22.2
2019-Sep-15 06:01 225 22.2
2019-Sep-15 05:45 281 22.2
2019-Sep-15 05:30 263 22.2
2019-Sep-15 05:16 250 22.2
2019-Sep-15 05:01 267 0 gusting 3 22.2
2019-Sep-15 04:46 268 1 gusting 4 22.2
2019-Sep-15 04:30 234 0 gusting 4 22.2
2019-Sep-15 04:15 285 22.2
2019-Sep-15 04:00 240 0 gusting 4 22.2
2019-Sep-15 03:45 281 0 gusting 4 22.2
2019-Sep-15 03:30 235 0 gusting 6 22.8
2019-Sep-15 03:15 183 0 gusting 5 22.8
2019-Sep-15 03:00 226 1 gusting 6 22.8
2019-Sep-15 02:46 150 0 gusting 7 22.8
2019-Sep-15 02:15 264 1 gusting 9 22.8
2019-Sep-15 02:00 217 0 gusting 5 22.8
2019-Sep-15 01:45 200 0 gusting 4 22.8
2019-Sep-15 01:30 221 22.8
2019-Sep-15 01:15 150 0 gusting 6 22.2
2019-Sep-15 01:00 214 1 gusting 5 22.2
2019-Sep-15 00:45 200 22.2
2019-Sep-15 00:30 198 1 gusting 7 22.2
2019-Sep-15 00:15 217 2 gusting 7 22.2
2019-Sep-15 00:00 228 4 gusting 9 22.2
2019-Sep-14 23:45 177 4 gusting 10 22.2
2019-Sep-14 23:30 179 6 gusting 9 22.2
2019-Sep-14 23:15 202 5 gusting 12 22.2
2019-Sep-14 23:00 157 3 gusting 10 22.2
2019-Sep-14 22:45 178 6 gusting 13 22.2
2019-Sep-14 22:31 183 5 gusting 13 22.2
2019-Sep-14 22:17 210 4 gusting 8 22.2
2019-Sep-14 22:02 210 4 gusting 9 22.2
2019-Sep-14 21:47 214 3 gusting 9 22.2
2019-Sep-14 21:32 193 2 gusting 10 22.8
2019-Sep-14 21:17 200 4 gusting 10 22.8
2019-Sep-14 21:01 221 6 gusting 13 22.8
2019-Sep-14 20:47 142 3 gusting 9 22.8
2019-Sep-14 20:31 116 6 gusting 13 22.8
2019-Sep-14 20:16 202 4 gusting 13 22.8
2019-Sep-14 20:01 197 5 gusting 12 22.8
2019-Sep-14 19:46 174 5 gusting 11 22.8
2019-Sep-14 19:31 192 6 gusting 11 22.8
2019-Sep-14 19:16 196 5 gusting 11 22.2
2019-Sep-14 19:02 138 4 gusting 11 22.8
2019-Sep-14 18:46 119 5 gusting 11 22.2
2019-Sep-14 18:31 164 5 gusting 13 22.2
2019-Sep-14 18:16 167 3 gusting 11 22.8
2019-Sep-14 18:01 164 5 gusting 11 22.8
2019-Sep-14 17:45 221 4 gusting 13 22.8
2019-Sep-14 17:31 187 6 gusting 14 22.8
2019-Sep-14 17:15 201 6 gusting 13 22.8
2019-Sep-14 17:00 219 6 gusting 12 22.8
2019-Sep-14 16:45 195 6 gusting 13 22.2
2019-Sep-14 16:30 197 6 gusting 15 22.2
2019-Sep-14 16:15 137 8 gusting 14 22.2
2019-Sep-14 16:00 142 6 gusting 13 22.2